Dewpoint
34 38 37 38 37 37 38 35 48 51 54 54 53 53 56 56 50 49 50 50 50 53 54 57 58 63 64 65 66 66 67 67 71 71 70 71 70 70 70 70 70 71 71 71
25 24 27 36 35 32 30 29 29 44 49 50 50 51 57 53 50 50 49 50 50 52 54 57 59 64 64 64 66 67 67 68 69 70 70 69 69 71 70 70 70 71 71 71
20 22 22 19 20 26 27 28 31 40 47 50 49 49 54 56 50 50 48 49 51 51 53 54 59 63 64 63 65 68 67 69 69 69 71 72 71 71 70 71 70 71 72 71
5 9 12 11 12 15 23 26 28 38 44 41 45 42 55 55 54 48 46 48 51 51 52 53 59 63 63 63 65 69 68 69 69 70 71 71 69 69 69 69 70 72 72 72
7 8 8 7 6 6 8 13 19 28 42 41 41 41 43 55 54 50 48 48 51 51 51 52 57 61 63 63 66 70 69 69 69 72 70 70 69 69 69 70 71 71 73 72
5 7 6 8 6 7 7 3 7 24 41 39 39 37 36 53 54 54 50 49 51 53 50 51 55 60 63 64 66 69 68 68 68 71 72 70 69 68 68 69 70 71 71 71
9 5 3 9 5 5 7 5 9 18 27 35 37 35 35 50 54 55 53 52 51 51 51 51 53 59 62 64 66 69 68 67 68 69 71 71 71 69 69 69 69 69 70 69
21 17 21 22 19 8 4 6 10 18 21 23 30 32 34 44 51 54 55 55 53 50 54 53 53 56 61 64 66 68 68 67 68 68 70 71 72 72 70 69 69 68 68 68
24 22 24 23 25 13 10 3 5 10 11 21 23 29 30 36 44 51 55 55 54 52 54 55 54 55 61 63 66 67 69 68 69 67 70 71 72 73 73 70 69 68 69 69
26 22 23 26 25 20 20 6 2 11 15 11 22 26 30 32 46 52 54 55 55 55 53 55 55 56 61 63 65 66 69 69 69 68 69 71 72 73 72 74 71 71 71 70
31 24 22 24 22 23 23 19 14 4 15 9 14 23 31 31 40 50 54 55 56 56 54 55 56 58 59 62 65 66 68 68 69 69 69 71 72 73 72 72 73 72 71 74
29 21 19 20 21 23 24 19 16 17 13 21 24 24 27 41 43 46 59 53 56 56 56 55 56 57 59 62 64 66 67 68 69 69 69 70 71 71 73 72 72 72 72 74
24 20 18 18 18 23 21 22 24 23 17 18 17 18 34 41 60 58 61 62 64 63 60 57 55 57 58 61 63 66 68 68 69 70 69 70 71 72 71 72 73 73 73 73
34 21 19 18 20 24 23 24 24 24 17 14 15 22 24 44 60 60 61 62 63 64 64 65 64 59 58 59 62 65 68 68 69 70 69 69 70 71 71 71 72 72 73 73
25 23 24 26 25 25 25 24 24 32 26 13 12 12 25 52 59 60 61 61 62 62 63 63 64 63 61 63 62 64 68 68 69 69 69 69 70 70 71 71 71 71 72 73
23 21 23 24 23 24 23 24 34 39 44 49 41 45 58 56 58 58 59 60 61 61 62 62 63 66 64 63 64 60 66 68 68 69 69 69 70 71 71 71 71 71 71 71
23 21 21 18 22 21 19 35 41 40 47 50 46 46 57 56 53 56 58 60 60 60 62 62 62 64 66 69 66 66 62 66 68 68 69 69 70 70 71 71 71 71 71 71
25 21 23 19 22 17 21 38 39 36 47 51 52 55 57 57 57 58 59 59 59 60 61 63 64 64 65 67 69 70 70 67 67 68 69 69 69 70 70 71 70 71 72 72
34 30 21 20 19 18 19 31 39 39 42 51 53 55 55 56 55 56 58 59 59 59 61 62 64 64 64 66 68 69 69 70 70 69 70 71 71 71 71 70 71 71 71 71
34 36 25 19 19 19 37 45 48 45 36 52 55 56 55 56 50 54 59 59 60 62 62 62 63 64 64 65 67 67 67 68 67 66 68 71 70 70 70 71 71 71 72 72
30 31 28 23 19 20 46 46 49 33 39 53 53 57 57 55 55 58 59 60 61 62 62 62 62 62 63 64 65 65 67 66 68 69 68 70 70 70 69 69 70 69 70 70
31 28 27 31 23 19 47 46 43 47 52 53 52 56 57 58 59 59 59 60 60 60 61 61 61 62 62 63 61 61 63 66 66 67 67 68 68 69 69 69 68 69 69 67
32 34 33 34 36 44 46 48 51 52 52 54 53 56 57 57 57 57 57 59 60 59 59 59 59 58 59 60 60 58 60 63 64 65 66 67 67 67 69 67 67 66 67 68
37 41 37 36 37 42 45 48 51 51 51 56 57 57 57 56 57 57 57 56 56 57 57 57 57 57 58 58 57 57 59 60 60 65 64 60 65 65 68 69 69 67 66 65
41 42 39 37 38 41 42 48 51 51 51 55 56 57 56 56 56 56 56 57 56 56 56 56 55 55 56 56 56 56 57 57 56 56 58 55 59 65 66 62 61 64 58 59
45 42 41 39 40 40 41 47 51 51 51 54 54 54 55 55 56 56 56 57 56 56 55 53 55 55 55 54 53 54 53 54 53 52 53 52 52 64 62 61 59 53 51 48
Lifted_Index
5 5 4 3 2 1 1 1 0 -1 -2 -2 -2 -2 -2 -2 -0 1 2 2 2 2 2 1 1 1 0 0 0 -0 -0 -1 -1 -2 -2 -2 -2 -2 -2 -2 -1 -2 -2 -2
5 5 5 4 4 2 2 1 1 -0 -1 -2 -2 -2 -2 -2 -1 -0 1 2 3 2 2 1 1 1 0 0 0 -0 -0 -1 -1 -2 -2 -2 -3 -3 -2 -2 -2 -2 -2 -2
6 6 6 6 5 4 3 2 2 1 -1 -2 -2 -2 -2 -2 -2 -2 -1 1 2 2 2 1 1 0 0 0 0 -0 -1 -1 -1 -2 -2 -2 -3 -3 -3 -2 -2 -2 -2 -3
8 8 7 7 7 6 4 3 2 1 -0 -1 -1 -1 -2 -2 -3 -3 -2 -1 1 2 2 2 1 0 0 0 -0 -1 -1 -1 -1 -2 -2 -2 -3 -3 -3 -3 -3 -3 -3 -3
9 8 8 7 7 7 6 4 3 2 1 0 0 -0 -1 -2 -2 -3 -3 -2 -0 1 1 1 1 1 0 0 -0 -1 -1 -1 -1 -2 -2 -3 -3 -3 -3 -3 -3 -4 -4 -4
9 9 8 8 7 7 6 5 3 2 2 1 1 0 -0 -1 -2 -3 -3 -3 -1 0 1 1 1 1 1 0 -1 -1 -1 -1 -1 -2 -3 -3 -3 -3 -3 -3 -4 -4 -4 -4
8 8 8 8 7 6 6 4 3 1 1 2 1 1 1 -1 -2 -3 -3 -3 -2 -1 0 1 1 1 1 -0 -1 -1 -1 -1 -1 -2 -3 -3 -3 -3 -3 -3 -3 -4 -4 -4
6 6 7 7 7 6 4 4 3 1 2 2 2 2 2 0 -2 -2 -3 -3 -3 -2 -1 0 1 1 0 -0 -1 -1 -2 -1 -1 -1 -2 -3 -3 -3 -3 -3 -3 -3 -3 -3
6 6 6 7 6 5 4 3 3 2 2 2 2 2 2 1 -1 -3 -3 -3 -3 -2 -1 -0 1 1 0 -0 -1 -2 -2 -2 -2 -1 -2 -3 -3 -4 -4 -3 -3 -3 -3 -2
6 6 6 6 5 5 4 3 2 2 1 1 2 2 2 1 -1 -3 -3 -3 -3 -3 -2 -1 0 1 0 -0 -1 -2 -2 -2 -2 -2 -2 -3 -3 -4 -4 -4 -3 -3 -3 -3
6 6 6 6 5 4 3 3 2 2 1 1 1 2 2 2 0 -2 -3 -4 -4 -3 -2 -2 -0 0 0 -1 -1 -2 -2 -2 -2 -2 -2 -3 -3 -4 -4 -4 -4 -4 -4 -4
5 5 5 5 5 3 3 3 3 2 1 1 1 2 2 1 -0 -2 -3 -3 -4 -4 -3 -3 -2 -1 -0 -1 -2 -2 -2 -2 -3 -3 -3 -3 -3 -3 -3 -4 -4 -4 -4 -4
5 4 4 4 4 3 2 3 3 2 1 1 1 2 2 -1 -2 -3 -3 -3 -4 -4 -4 -3 -3 -2 -2 -2 -2 -3 -3 -3 -3 -3 -3 -4 -4 -4 -3 -3 -3 -3 -3 -4
5 4 4 3 3 3 2 2 2 2 1 1 2 2 1 -2 -4 -4 -3 -3 -3 -3 -3 -3 -3 -2 -2 -2 -2 -3 -3 -3 -3 -3 -3 -4 -4 -4 -4 -3 -3 -3 -3 -3
5 4 4 3 3 2 2 2 2 1 0 0 1 1 -0 -2 -3 -3 -3 -3 -3 -3 -3 -3 -3 -2 -2 -2 -2 -2 -3 -3 -3 -3 -3 -4 -4 -4 -4 -3 -3 -3 -3 -3
4 4 4 3 2 2 2 1 0 -1 -2 -2 -1 -2 -3 -4 -3 -3 -2 -2 -2 -2 -3 -3 -3 -3 -3 -3 -2 -2 -2 -2 -3 -3 -3 -4 -4 -4 -4 -4 -4 -4 -3 -3
3 3 3 3 2 2 2 0 -1 -2 -2 -3 -3 -3 -4 -5 -4 -3 -2 -2 -2 -2 -2 -2 -2 -3 -4 -4 -3 -3 -3 -3 -3 -3 -3 -3 -4 -4 -5 -5 -4 -4 -4 -4
2 2 2 2 2 2 2 -0 -2 -2 -2 -3 -3 -4 -5 -4 -4 -3 -2 -1 -1 -1 -1 -0 -1 -3 -4 -4 -4 -4 -4 -4 -4 -4 -4 -4 -4 -4 -5 -5 -5 -5 -5 -5
2 1 1 1 1 2 1 -1 -2 -1 -1 -2 -3 -4 -4 -4 -3 -3 -2 -1 -0 -0 -0 -0 -0 -1 -3 -4 -5 -5 -5 -5 -5 -5 -5 -5 -5 -5 -5 -6 -6 -5 -5 -5
1 1 1 1 1 1 -0 -2 -2 -1 -1 -2 -3 -3 -3 -3 -2 -2 -2 -1 -0 -1 -1 -0 -0 -0 -1 -2 -3 -4 -5 -4 -4 -4 -4 -4 -4 -4 -5 -5 -5 -6 -5 -5
1 1 1 1 1 0 -1 -3 -3 -2 -1 -1 -1 -2 -2 -2 -1 -1 -1 -1 -1 -1 -1 -1 -1 -1 -1 -2 -2 -3 -3 -3 -3 -3 -3 -3 -3 -3 -3 -4 -4 -5 -5 -5
1 1 1 1 1 0 -1 -2 -3 -2 -2 -1 -1 -1 -1 -1 -1 -1 -1 -1 -1 -1 -1 -1 -1 -1 -1 -2 -2 -3 -3 -2 -3 -3 -3 -3 -3 -3 -3 -2 -3 -4 -4 -4
1 1 1 1 0 -0 -1 -2 -2 -2 -2 -1 -1 -1 -1 -1 -1 -1 -1 -1 -1 -1 -1 -1 -1 -1 -1 -2 -2 -3 -3 -3 -3 -3 -3 -2 -2 -3 -3 -3 -3 -3 -3 -3
1 0 0 0 0 -0 -1 -1 -2 -2 -2 -2 -2 -2 -1 -1 -1 -1 -1 -1 -1 -1 -1 -1 -1 -1 -1 -1 -1 -2 -2 -3 -3 -2 -2 -1 -2 -2 -3 -3 -2 -2 -2 -2
1 0 0 0 0 1 0 -1 -1 -2 -2 -2 -2 -2 -1 -1 -0 -1 -1 -1 -1 -1 -0 -0 -0 0 0 0 0 -0 -1 -1 -2 -2 -1 -1 -1 -2 -2 -1 -0 0 0 -0
1 1 1 0 0 1 1 -0 -1 -1 -2 -2 -2 -1 -1 -0 -0 -0 -0 -1 -1 -1 -0 -0 -0 0 0 1 1 1 0 -1 -1 -1 -1 -0 -1 -1 -0 1 1 2 2 2